Regional Weather Roundup
Issued by NWS

Home | Current Version | Previous Version | Text Only | Print | Product List | Glossary Off
Versions: 1 2 3 4 5 6 7 8 9 10 11 12 13 14 15 16 17 18 19 20 21 22 23 24 25 26 27 28 29 30 31 32 33 34 35 36 37 38 39 40 41 42 43 44 45 46 47 48 49 50

000
ASUS43 KOAX 111002
RWRNE

WEATHER ROUNDUP FOR NEBRASKA
NATIONAL WEATHER SERVICE OMAHA NE
500 AM CDT FRI JUL 11 2014

NOTES: SATELLITE DATA IS BEING USED TO AUGMENT CLOUD COVER ABOVE
       12000 FEET.
       "FAIR" INDICATES FEW OR NO CLOUDS BELOW 12,000 FEET WITH NO
       SIGNIFICANT WEATHER AND/OR OBSTRUCTIONS TO VISIBILITY.

  * THESE STATIONS DO NOT REPORT WEATHER SUCH AS RAIN...SNOW OR FOG.

NEZ001>004-019>022-054>056-111100-
NEBRASKA PANHANDLE

CITY           SKY/WX    TMP DP  RH WIND       PRES   REMARKS
SCOTTSBLUFF    CLOUDY    66  62  87 S3        30.02S
ALLIANCE       CLOUDY    64  62  93 W8        30.00R
CHADRON        CLOUDY    67  64  90 SW3       29.95S
KIMBALL        MOCLDY    63  61  94 CALM      30.05S
SIDNEY         CLOUDY    66  59  78 NE6       30.05R
$$

NEZ057>060-069>072-079>082-111100-
SOUTHWEST NEBRASKA

CITY           SKY/WX    TMP DP  RH WIND       PRES   REMARKS
NORTH PLATTE   CLOUDY    67  64  90 E5        29.96F
IMPERIAL       CLOUDY    71  68  90 NE7       29.97S
LEXINGTON      CLOUDY    72  69  91 E6        29.97F
MCCOOK         CLOUDY    71  68  90 E9        29.95F
OGALLALA       CLOUDY    65  63  91 E10       29.96S
$$

NEZ005>010-023>029-035>040-094-111100-
NORTH CENTRAL NEBRASKA

CITY           SKY/WX    TMP DP  RH WIND       PRES   REMARKS
VALENTINE      PTCLDY    69  63  81 CALM      29.92F
AINSWORTH      MOCLDY    69  64  82 CALM      29.92F
BROKEN BOW     LGT RAIN  71  69  93 E5        29.96F FOG
O`NEILL        CLOUDY    70  65  84 SW12      29.93F
ORD            LGT RAIN  69  67  93 CALM      29.95F
THEDFORD       CLOUDY    72  62  72 S12       29.92F
$$

NEZ041-046>049-061>064-073>077-083>087-111100-
SOUTH CENTRAL NEBRASKA

CITY           SKY/WX    TMP DP  RH WIND       PRES   REMARKS
GRAND ISLAND   CLOUDY    70  66  87 NW6       30.02R
AURORA         CLOUDY    70  67  92 CALM      29.99R
HASTINGS       CLOUDY    70  64  81 NW13G20   30.00R
HEBRON         MOCLDY    72  65  81 S6        29.96S
HOLDREGE       CLOUDY    71  67  87 CALM      29.98R
KEARNEY *      CLOUDY    72  64  78 CALM      29.99F
YORK           CLOUDY    68  66  94 S7        29.96S
$$

NEZ011>018-030>034-042>045-111100-
NORTHEAST NEBRASKA

CITY           SKY/WX    TMP DP  RH WIND       PRES   REMARKS
NORFOLK        CLOUDY    71  64  78 S6        29.97R
ALBION         TSTM      68  65  92 CALM      29.99F
BLAIR          CLOUDY    71  64  79 S9        30.00S
TEKAMAH        CLOUDY    71  66  84 SE10      29.97F
WAYNE          CLOUDY    70  66  88 SE6       29.97F
$$

NEZ050>053-065>068-078-088>093-111100-
SOUTHEAST NEBRASKA

CITY           SKY/WX    TMP DP  RH WIND       PRES   REMARKS
LINCOLN        MOCLDY    72  65  78 SE10      29.97F
OMAHA EPPLEY   CLOUDY    72  64  76 S14       29.99S
BEATRICE       MOCLDY    68  65  89 SE10      29.97F
FALLS CITY     MOCLDY    68  65  90 SE9       30.01R
NEBRASKA CITY  MOCLDY    68  64  87 S12G20    30.00F
PLATTSMOUTH    MOCLDY    70  65  82 SE10G16   30.00S
$$

NEZ044-045-051>053-067-111100-
OMAHA AREA

CITY           SKY/WX    TMP DP  RH WIND       PRES   REMARKS
OMAHA EPPLEY   CLOUDY    72  64  76 S14       29.99S
BLAIR          CLOUDY    71  64  79 S9        30.00S
MILLARD        CLOUDY    71  66  83 SE7       29.99S
OFFUTT AFB     CLOUDY    69  69  99 SE10      29.99R
PLATTSMOUTH    MOCLDY    70  65  82 SE10G16   30.00S
WAHOO          PTSUNNY   70  65  85 SE7       29.97F
$$


USA.gov is the U.S. government's official web portal to all federal, state and local government web resources and services.